Regional Weather Roundup
Issued by NWS Charleston, SC

Current Version | Previous Version | Graphics & Text | Print | Product List | Glossary On
Versions: 1 2 3 4 5 6 7 8 9 10 11 12 13 14 15 16 17 18 19 20 21 22 23 24 25 26 27 28 29 30 31 32 33 34 35 36 37 38 39 40 41 42 43 44 45 46 47 48 49 50
678
ASUS42 KCHS 241027
RWRCHS

REGIONAL WEATHER ROUNDUP
NATIONAL WEATHER SERVICE CHARLESTON SC
600 AM EDT SAT JUN 24 2017

NOTE: "FAIR" INDICATES FEW OR NO CLOUDS BELOW 12,000 FEET WITH NO
SIGNIFICANT WEATHER AND/OR OBSTRUCTIONS TO VISIBILITY.

NOT ALL STATIONS ARE QUALITY CONTROLLED. USE DATA WITH CAUTION...
ESPECIALLY DEWPOINT OBSERVATIONS.

SCZ027-030-031-034>040-042>050-241100-
...SOUTHEAST SOUTH CAROLINA...

CITY           SKY/WX    TMP DP  RH WIND       PRES   REMARKS
N CHARLESTON   MOCLDY    79  75  87 SW9       29.98R
WATERFRONT PRK   N/A     81  78  91 SW8       29.95S
JOHNS ISLAND   CLOUDY    81  79  94 SW7       29.99R
PINOPOLIS        N/A     79  77  94 SW7       29.89S
MONCKS CORNER  NOT AVBL
SUMMERVILLE    NOT AVBL
BEAUFORT MCAS  PTCLDY    78  77  96 SW6       29.99R
BEAUFORT ARPT  NOT AVBL
HILTON HEAD IS NOT AVBL
WALTERBORO     SUNNY     75  72  88 SW7       29.99S
ALLENDALE      FAIR      77  75  94 CALM      29.97R

...SOUTHERN MIDLANDS AND PEE DEE...

CITY           SKY/WX    TMP DP  RH WIND       PRES   REMARKS
GEORGETOWN     FAIR      77  77 100 SW9       29.98R
KINGSTREE      FAIR      77  72  83 SW5       29.96R
ORANGEBURG     CLEAR     75  73  93 SW6       29.96S
BARNWELL       PTSUNNY   77  77 100 S3        29.97S
AIKEN          FAIR      73  72  94 SW5       30.00R
MANNING        FAIR      77  75  94 SW18      29.95S
COLUMBIA       PTCLDY    78  73  84 SW7       29.93R
SUMTER         CLEAR     77  73  87 SW10      29.92R
FLORENCE       CLEAR     77  75  93 SW9       29.94R
MYRTLE BEACH   PTCLDY    79  74  84 SW12G18   29.96S
N MYRTLE BEACH PTCLDY    79  75  87 SW16      29.94S

$$

GAZ063-065-086>088-099>101-113>116-118-119-134>141-150-241100-
...SOUTHEAST GEORGIA...

CITY           SKY/WX    TMP DP  RH WIND       PRES   REMARKS
SAVANNAH ARPT  PTCLDY    76  71  85 SW7       30.01R
HUNTER AAF     CLEAR     76  73  91 CALM      29.98R
FORT STEWART   PTCLDY    75  71  89 SW5       29.99R
STATESBORO     CLEAR     76  76 100 S5        29.99S
SYLVANIA       SUNNY     76  76 100 CALM      29.99S
CLAXTON        FAIR      73  72  98 CALM      30.00S

...CSRA...CENTRAL AND FAR SOUTHEAST GEORGIA...

CITY           SKY/WX    TMP DP  RH WIND       PRES   REMARKS
THOMSON        CLOUDY    74  72  93 W3        30.02R
AUGUSTA-BUSH   CLEAR     77  74  90 S6        29.95S
AUGUSTA-DANIEL CLEAR     78  72  81 SW6       29.97S
SWAINSBORO     FAIR      75  75 100 CALM      30.00R
VIDALIA        CLEAR     77  73  88 S6        30.00R
EASTMAN        FAIR      75  75 100 CALM      30.02R
HAZLEHURST       N/A     76  76 100 SW5       29.99S
ALMA           MOCLDY    73  72  96 CALM      30.02R FOG
WAYCROSS       MOCLDY    76  76 100 CALM      30.02S
JESUP          FAIR      72  70  94 CALM      30.02R
BAXLEY         FAIR      73  73 100 S3        30.01R FOG
BRUNSWICK      CLEAR     77  75  94 S5        30.02R
SAINT SIMONS   CLEAR     79  76  90 SW5       30.00S

$$

SCZ027-028-034-036>038-045-046-048>050-GAZ119-141-241100-
...LAKE AND SUPPLEMENTAL COASTAL OBSERVATIONS...

STATION/POSITION TIME  TEMP    WIND        PRES    WAVE   SWELL
                       AIR SEA DIR/SP/G            HT/PER HT/PER/DIR
                 (UTC) (F)     (DEG/KT/KT) (MB)    (FT/S) (FT/S/D)
WINYAH BAY       0945   80     230/ 12     1014.0S
LAKE MURRAY      1020   79     230/  8/ 12 1012.9
ACE BASIN NERRS  0945   79     210/  1     1016.0R
FORT PULASKI     1000   79 84  270/  6/  8 1016.3
SAPELO ISLAND    1000   78     210/  5     1016.0

$$

ANZ835-935-AMZ111-154-330-350-352-354-370-450-454-472-241100-
...C-MAN AND BUOY OBSERVATIONS...

STATION/POSITION TIME  TEMP    WIND        PRES    WAVE   SWELL
                       AIR SEA DIR/SP/G            HT/PER HT/PER/DIR
                 (UTC) (F)     (DEG/KT/KT) (MB)    (FT/S) (FT/S/D)
BUOY 41004       1010   81 80  230/ 19/ 25 1015.4
BUOY 41008       0950   81 82  190/ 17/ 19 1015.2R   4/ 5   2/100/ 8
FOLLY BEACH CMAN 1000   81     230/ 16/ 21 1015.8R
CAPERS NEARSHORE 1008   85 82  240/ 19/ 25 1014.6R
FRIPP NEARSHORE  1008   82 82  230/ 17/ 23 1015.2R


STATION/POSITION TIME  TEMP    WIND        PRES    WAVE   SWELL
                       AIR SEA DIR/SP/G            HT/PER HT/PER/DIR
                 (UTC) (F)     (DEG/KT/KT) (MB)    (FT/S) (FT/S/D)
5E ST. MARYS GA  1000      79                N/A     3/ 8
FRYING PAN BUOY  1010   81 80  220/ 21/ 27 1014.9
BUOY 41025       0950   80 79  230/ 23/ 27 1012.4S   7/ 7
CAPE LOOKOUT NC  1000   80     220/ 16/ 20 1013.1S
BUOY 41002       0950   81 80  220/ 14/ 16 1017.6R   4/ 5   2/110/ 9
BUOY 41010       1010   82 83  170/ 12/ 16 1017.1
ST AUGUSTINE FL  1000   77 77  210/  5/  6 1016.4R


$$




USA.gov is the U.S. government's official web portal to all federal, state and local government web resources and services.